Weather History for Okeechobee, FL

Change the Weather History Date:

Sunday, November 11, 2012

  Actual Average Record
Temperature  
Mean Temperature 66 °F -  
Max Temperature 78 °F 80 °F 89 °F (1975)
Min Temperature 55 °F 60 °F 46 °F (1962)
Cooling Degree Days 2    
Growing Degree Days 16 (Base 50)    
Moisture  
Dew Point 58 °F    
Average Humidity 77    
Maximum Humidity 100    
Minimum Humidity 44    
Precipitation  
Precipitation 0.00 in - - ()
Sea Level Pressure  
Sea Level Pressure 30.24 in    
Wind  
Wind Speed 4 mph (NE)    
Max Wind Speed 13 mph    
Max Gust Speed 20 mph    
Visibility 10 miles    
Events      
Averages and records for this station are not official NWS values.
T = Trace of Precipitation, MM = Missing Value Source: NWS Daily Summary

Daily Weather History Graph

Daily Weather History Graph

Search for Another Location

Airport:

Trip Planner

Search our weather history database for the weather conditions in past years. The results will help you decide how hot, cold, wet, or windy it might be!

Date:

Astronomy

Nov. 11, 2012 Rise Set
Actual Time 6:41 AM EST 5:33 PM EST
Civil Twilight 6:16 AM EST 5:58 PM EST
Nautical Twilight 5:48 AM EST 6:26 PM EST
Astronomical Twilight 5:20 AM EST 6:53 PM EST
Moon 4:04 AM EST (11/11) 3:47 PM EST (11/11)
Length of Visible Light 11h 41m
Length of Day
10h 52m
Waning Crescent, 7% of the Moon is Illuminated
Nov 11
Waning Crescent
Nov 13
New
Nov 20
First Quarter
Nov 28
Full
Dec 6
Last Quarter

Hourly Weather History & Observations

Time (EST) Temp. Dew Point Humidity Pressure Visibility Wind Dir Wind Speed Gust Speed Precip Events Conditions
12:15 AM 55.4 °F 53.6 °F 94% 30.26 in 10.0 mi North 3.5 mph - N/A   Mostly Cloudy
12:35 AM 55.4 °F 53.6 °F 94% 30.25 in 10.0 mi NNE 3.5 mph - N/A   Mostly Cloudy
12:55 AM 57.2 °F 53.6 °F 88% 30.25 in 10.0 mi North 3.5 mph - N/A   Overcast
1:55 AM 55.4 °F 51.8 °F 88% 30.24 in 10.0 mi Calm Calm - N/A   Scattered Clouds
2:15 AM 55.4 °F 53.6 °F 94% 30.24 in 10.0 mi North 4.6 mph - N/A   Mostly Cloudy
2:35 AM 57.2 °F 53.6 °F 88% 30.23 in 10.0 mi NNE 4.6 mph - N/A   Mostly Cloudy
3:15 AM 57.2 °F 53.6 °F 88% 30.23 in 10.0 mi North 3.5 mph - N/A   Mostly Cloudy
3:35 AM 59.0 °F 53.6 °F 82% 30.22 in 10.0 mi North 3.5 mph - N/A   Overcast
3:55 AM 57.2 °F 53.6 °F 88% 30.23 in 10.0 mi North 4.6 mph - N/A   Mostly Cloudy
4:15 AM 57.2 °F 53.6 °F 88% 30.23 in 10.0 mi Calm Calm - N/A   Scattered Clouds
4:35 AM 55.4 °F 51.8 °F 88% 30.23 in 10.0 mi Calm Calm - N/A   Scattered Clouds
4:55 AM 55.4 °F 51.8 °F 88% 30.23 in 10.0 mi Calm Calm - N/A   Scattered Clouds
5:15 AM 55.4 °F 53.6 °F 94% 30.23 in 10.0 mi Calm Calm - N/A   Mostly Cloudy
5:35 AM 55.4 °F 53.6 °F 94% 30.23 in 10.0 mi Calm Calm - N/A   Mostly Cloudy
5:55 AM 55.4 °F 53.6 °F 94% 30.23 in 10.0 mi North 3.5 mph - N/A   Scattered Clouds
6:15 AM 55.4 °F 53.6 °F 94% 30.24 in 10.0 mi Calm Calm - N/A   Mostly Cloudy
6:35 AM 55.4 °F 53.6 °F 94% 30.25 in 10.0 mi Calm Calm - N/A   Mostly Cloudy
6:55 AM 55.4 °F 53.6 °F 94% 30.25 in 10.0 mi Calm Calm - N/A   Overcast
7:15 AM 55.4 °F 53.6 °F 94% 30.25 in 10.0 mi Calm Calm - N/A   Mostly Cloudy
7:35 AM 59.0 °F 55.4 °F 88% 30.26 in 10.0 mi Calm Calm - N/A   Overcast
8:15 AM 64.4 °F 59.0 °F 83% 30.27 in 10.0 mi Calm Calm - N/A   Scattered Clouds
9:15 AM 71.6 °F 59.0 °F 64% 30.27 in 10.0 mi NNE 4.6 mph - N/A   Scattered Clouds
9:35 AM 71.6 °F 60.8 °F 69% 30.27 in 10.0 mi ENE 4.6 mph - N/A   Clear
9:55 AM 73.4 °F 60.8 °F 65% 30.27 in 10.0 mi East 4.6 mph - N/A   Clear
10:15 AM 73.4 °F 60.8 °F 65% 30.28 in 10.0 mi ENE 4.6 mph - N/A   Clear
10:35 AM 73.4 °F 60.8 °F 65% 30.28 in 10.0 mi NE 5.8 mph - N/A   Mostly Cloudy
11:15 AM 71.6 °F 60.8 °F 69% 30.29 in 10.0 mi NE 11.5 mph 17.3 mph N/A   Overcast
11:35 AM 75.2 °F 60.8 °F 61% 30.28 in 10.0 mi ENE 9.2 mph 18.4 mph N/A   Mostly Cloudy
11:55 AM 73.4 °F 59.0 °F 61% 30.27 in 10.0 mi East 4.6 mph 18.4 mph N/A   Mostly Cloudy
12:15 PM 77.0 °F 57.2 °F 50% 30.26 in 10.0 mi East 11.5 mph 18.4 mph N/A   Mostly Cloudy
12:35 PM 77.0 °F 59.0 °F 54% 30.26 in 10.0 mi East 9.2 mph - N/A   Overcast
12:55 PM 73.4 °F 59.0 °F 61% 30.25 in 10.0 mi NE 9.2 mph 17.3 mph N/A   Overcast
1:15 PM 77.0 °F 59.0 °F 54% 30.24 in 10.0 mi East 4.6 mph - N/A   Scattered Clouds
1:35 PM 78.8 °F 55.4 °F 44% 30.23 in 10.0 mi ENE 10.4 mph 18.4 mph N/A   Clear
1:55 PM 78.8 °F 55.4 °F 44% 30.22 in 10.0 mi East 12.7 mph - N/A   Clear
2:15 PM 78.8 °F 55.4 °F 44% 30.22 in 10.0 mi ENE 11.5 mph 19.6 mph N/A   Clear
2:35 PM 78.8 °F 55.4 °F 44% 30.21 in 10.0 mi ENE 8.1 mph - N/A   Clear
2:55 PM 78.8 °F 57.2 °F 47% 30.21 in 10.0 mi East 9.2 mph 16.1 mph N/A   Clear
3:15 PM 77.0 °F 55.4 °F 47% 30.22 in 10.0 mi East 8.1 mph 19.6 mph N/A   Clear
3:35 PM 77.0 °F 57.2 °F 50% 30.22 in 10.0 mi ENE 12.7 mph 18.4 mph N/A   Scattered Clouds
3:55 PM 73.4 °F 59.0 °F 61% 30.22 in 10.0 mi ENE 11.5 mph 18.4 mph N/A   Scattered Clouds
4:15 PM 75.2 °F 59.0 °F 57% 30.22 in 10.0 mi ENE 6.9 mph 17.3 mph N/A   Scattered Clouds
4:35 PM 77.0 °F 59.0 °F 54% 30.22 in 10.0 mi ENE 6.9 mph - N/A   Mostly Cloudy
5:15 PM 71.6 °F 60.8 °F 69% 30.22 in 10.0 mi ENE 6.9 mph - N/A   Mostly Cloudy
5:35 PM 69.8 °F 60.8 °F 73% 30.22 in 10.0 mi NE 5.8 mph - N/A   Scattered Clouds
5:55 PM 69.8 °F 60.8 °F 73% 30.22 in 10.0 mi NE 4.6 mph - N/A   Mostly Cloudy
6:15 PM 68.0 °F 60.8 °F 78% 30.23 in 10.0 mi NE 4.6 mph - N/A   Scattered Clouds
6:35 PM 68.0 °F 60.8 °F 78% 30.23 in 10.0 mi NE 4.6 mph - N/A   Clear
6:55 PM 66.2 °F 60.8 °F 83% 30.24 in 10.0 mi NE 3.5 mph - N/A   Clear
7:15 PM 64.4 °F 60.8 °F 88% 30.24 in 10.0 mi NNE 3.5 mph - N/A   Scattered Clouds
7:35 PM 64.4 °F 60.8 °F 88% 30.25 in 10.0 mi NE 3.5 mph - N/A   Mostly Cloudy
7:55 PM 64.4 °F 60.8 °F 88% 30.25 in 10.0 mi NE 3.5 mph - N/A   Scattered Clouds
8:15 PM 64.4 °F 60.8 °F 88% 30.25 in 10.0 mi NE 4.6 mph - N/A   Mostly Cloudy
8:35 PM 64.4 °F 60.8 °F 88% 30.25 in 10.0 mi NE 3.5 mph - N/A   Scattered Clouds
8:55 PM 64.4 °F 60.8 °F 88% 30.25 in 10.0 mi NE 3.5 mph - N/A   Mostly Cloudy
9:15 PM 64.4 °F 60.8 °F 88% 30.26 in 10.0 mi NNE 4.6 mph - N/A   Scattered Clouds
9:35 PM 64.4 °F 60.8 °F 88% 30.25 in 10.0 mi Calm Calm - N/A   Mostly Cloudy
9:55 PM 62.6 °F 60.8 °F 94% 30.25 in 10.0 mi NNE 4.6 mph - N/A   Mostly Cloudy
10:15 PM 62.6 °F 60.8 °F 94% 30.25 in 10.0 mi NNE 4.6 mph - N/A   Scattered Clouds
10:55 PM 62.6 °F 60.8 °F 94% 30.25 in 10.0 mi NNE 4.6 mph - N/A   Clear
11:15 PM 62.6 °F 60.8 °F 94% 30.25 in 10.0 mi NNE 4.6 mph - N/A   Clear
11:35 PM 60.8 °F 60.8 °F 100% 30.25 in 10.0 mi North 3.5 mph - N/A   Clear